Weather History for Milwaukee, WI

Change the Weather History Date:

Sunday, December 29, 2013

  Actual Average Record
Temperature  
Mean Temperature 22 °F 23 °F  
Max Temperature 40 °F 30 °F 62 °F (1984)
Min Temperature 4 °F 17 °F -21 °F (1880)
Degree Days  
Heating Degree Days 43 42  
Month to date heating degree days 1235 1110  
Since 1 July heating degree days 2610 2475  
Cooling Degree Days 0 0  
Month to date cooling degree days 0 0  
Year to date cooling degree days 688 641  
Moisture  
Dew Point 16 °F    
Average Humidity 79    
Maximum Humidity 96    
Minimum Humidity 61    
Precipitation  
Precipitation T in 0.06 in 0.73 in (1954)
Month to date precipitation 1.71 1.93  
Year to date precipitation 39.94 34.65  
Snow  
Snow T in 0.40 in 8.00 in (1954)
Month to date snowfall 18.1 9.8  
Since 1 July snowfall 20.1 12.5  
Snow Depth 6.00 in    
Sea Level Pressure  
Sea Level Pressure 29.96 in    
Wind  
Wind Speed 13 mph (NW)    
Max Wind Speed 25 mph    
Max Gust Speed 35 mph    
Visibility 9 miles    
Events Snow    
T = Trace of Precipitation, MM = Missing Value Source: NWS Daily Summary

Daily Weather History Graph

Daily Weather History Graph

Search for Another Location

Airport:

Trip Planner

Search our weather history database for the weather conditions in past years. The results will help you decide how hot, cold, wet, or windy it might be!

Date:

Astronomy

Dec. 29, 2013 Rise Set
Actual Time 7:22 AM CST 4:25 PM CST
Civil Twilight 6:50 AM CST 4:57 PM CST
Nautical Twilight 6:14 AM CST 5:33 PM CST
Astronomical Twilight 5:39 AM CST 6:07 PM CST
Moon 4:03 AM CST (12/29) 2:04 PM CST (12/29)
Length of Visible Light 10h 07m
Length of Day
9h 02m
Waning Crescent, 11% of the Moon is Illuminated
Dec 29
Waning Crescent
Jan 1
New
Jan 7
First Quarter
Jan 15
Full
Jan 23
Last Quarter

Hourly Weather History & Observations

Time (CST) Temp. Windchill Dew Point Humidity Pressure Visibility Wind Dir Wind Speed Gust Speed Precip Events Conditions
12:52 AM 39.0 °F 32.8 °F 28.9 °F 67% 29.75 in 10.0 mi SW 9.2 mph - N/A   Partly Cloudy
1:52 AM 36.0 °F 29.0 °F 28.9 °F 76% 29.77 in 10.0 mi SSW 9.2 mph - N/A   Partly Cloudy
2:52 AM 34.0 °F 28.0 °F 28.0 °F 79% 29.77 in 10.0 mi SSW 6.9 mph - N/A   Partly Cloudy
3:52 AM 32.0 °F 25.6 °F 27.0 °F 82% 29.76 in 10.0 mi SSW 6.9 mph - N/A   Partly Cloudy
4:52 AM 34.0 °F 28.8 °F 28.0 °F 79% 29.75 in 10.0 mi WSW 5.8 mph - N/A   Scattered Clouds
5:52 AM 33.1 °F 28.7 °F 27.0 °F 78% 29.78 in 10.0 mi West 4.6 mph - N/A   Scattered Clouds
6:34 AM 35.1 °F 24.5 °F 28.0 °F 76% 29.78 in 9.0 mi North 18.4 mph 23.0 mph N/A   Overcast
6:47 AM 32.0 °F 19.2 °F 28.4 °F 87% 29.79 in 9.0 mi NNE 23.0 mph 33.4 mph N/A   Overcast
6:52 AM 30.9 °F 17.8 °F 28.0 °F 89% 29.82 in 10.0 mi North 23.0 mph 33.4 mph N/A   Overcast
7:52 AM 28.9 °F 16.5 °F 26.1 °F 89% 29.86 in 9.0 mi NNE 18.4 mph 28.8 mph N/A   Overcast
8:15 AM 27.0 °F 13.2 °F 24.1 °F 89% 29.85 in 4.0 mi North 20.7 mph 29.9 mph 0.00 in   Light Freezing Drizzle
8:52 AM 26.1 °F 12.3 °F 21.9 °F 84% 29.89 in 4.0 mi North 19.6 mph 29.9 mph 0.00 in   Light Freezing Drizzle
9:50 AM 24.8 °F 12.4 °F 21.2 °F 86% 29.90 in 7.0 mi North 15.0 mph - 0.00 in   Light Freezing Drizzle
9:52 AM 25.0 °F 13.1 °F 21.0 °F 85% 29.93 in 6.0 mi NNW 13.8 mph - 0.00 in   Light Freezing Drizzle
10:00 AM 25.0 °F 11.3 °F 21.0 °F 85% 29.90 in 4.0 mi North 18.4 mph 25.3 mph 0.00 in   Light Freezing Drizzle
10:27 AM 25.0 °F 14.2 °F 21.9 °F 88% 29.91 in 2.5 mi North 11.5 mph - 0.00 in   Light Freezing Drizzle
10:38 AM 24.1 °F 11.0 °F 21.0 °F 88% 29.92 in 1.5 mi NNW 16.1 mph 20.7 mph 0.00 in   Light Freezing Drizzle
10:52 AM 23.0 °F 9.6 °F 21.0 °F 92% 29.95 in 2.0 mi NNW 16.1 mph 21.9 mph 0.00 in   Light Freezing Drizzle
11:08 AM 23.0 °F 10.1 °F 19.9 °F 88% 29.93 in 4.0 mi NNW 15.0 mph - 0.00 in   Light Freezing Drizzle
11:28 AM 23.0 °F 10.1 °F 18.0 °F 81% 29.92 in 10.0 mi NNW 15.0 mph - 0.00 in   Light Freezing Drizzle
11:32 AM 23.0 °F 10.1 °F 17.1 °F 78% 29.92 in 10.0 mi NNW 15.0 mph - 0.00 in   Overcast
11:52 AM 23.0 °F 11.1 °F 16.0 °F 74% 29.95 in 10.0 mi NNW 12.7 mph 21.9 mph 0.00 in   Overcast
12:43 PM 21.9 °F 9.2 °F 12.9 °F 68% 29.93 in 10.0 mi NNW 13.8 mph - N/A   Overcast
12:52 PM 21.9 °F 8.2 °F 12.9 °F 68% 29.97 in 10.0 mi NNW 16.1 mph 24.2 mph N/A   Overcast
1:52 PM 21.9 °F 8.7 °F 12.0 °F 66% 29.99 in 10.0 mi NNW 15.0 mph 21.9 mph N/A   Overcast
2:52 PM 21.0 °F 7.1 °F 10.9 °F 65% 30.01 in 10.0 mi NW 16.1 mph - N/A   Overcast
3:01 PM 21.0 °F 8.1 °F 10.9 °F 65% 29.98 in 10.0 mi NNW 13.8 mph 21.9 mph N/A   Overcast
3:52 PM 19.9 °F 5.7 °F 9.0 °F 62% 30.04 in 10.0 mi NW 16.1 mph 21.9 mph N/A   Mostly Cloudy
4:44 PM 18.0 °F 4.2 °F 8.1 °F 65% 30.03 in 10.0 mi NNW 13.8 mph - N/A   Overcast
4:52 PM 18.0 °F 3.1 °F 8.1 °F 65% 30.07 in 10.0 mi NNW 16.1 mph - 0.00 in Snow Light Snow
5:52 PM 16.0 °F 1.7 °F 6.1 °F 65% 30.10 in 9.0 mi NW 13.8 mph - 0.00 in Snow Light Snow
6:08 PM 15.1 °F -0.1 °F 3.9 °F 61% 30.07 in 10.0 mi NNW 15.0 mph - 0.00 in   Mostly Cloudy
6:52 PM 14.0 °F 0.5 °F 3.9 °F 64% 30.13 in 10.0 mi NW 11.5 mph - 0.00 in   Mostly Cloudy
7:52 PM 12.9 °F -2.2 °F 1.9 °F 62% 30.15 in 10.0 mi NW 13.8 mph - N/A   Partly Cloudy
8:52 PM 10.0 °F -5.9 °F -0.9 °F 61% 30.17 in 10.0 mi NW 13.8 mph - N/A   Partly Cloudy
9:52 PM 8.1 °F -8.4 °F -2.0 °F 64% 30.20 in 10.0 mi NW 13.8 mph - N/A   Clear
10:52 PM 6.1 °F -8.7 °F -4.0 °F 63% 30.21 in 10.0 mi WNW 10.4 mph 20.7 mph N/A   Clear
11:52 PM 3.9 °F -10.4 °F -5.1 °F 66% 30.22 in 10.0 mi NW 9.2 mph - N/A   Clear